[[{"header":{"parameterUnit":"m.s-1","parameterCategory":1,"la1":30.2991,"la2":30.254,"lo1":-89.0895,"lo2":-89.0444,"dy":0.0017,"dx":0.0017,"nx":28,"ny":28,"refTime":"2024-10-07T21:00:00:Z","depth":0,"parameterNumber":2,"parameterNumberName":"U-component_of_WINDS"},"data":[0,0,0,0,0,0,0,0,0,0,0,0,0,0,0,0,0,0,0,0,0,0,0,0,0,0,0,0,0,0,0,0,0,0,0,0,0,0,0,0,0,0,0,0,0,0,0,0,0,0,0,0,0,0,0,0,0,0,-1.2797,-1.2797,0,-1.2859,-1.2859,-1.286,-1.2828,-1.2826,-1.2824,-1.2823,-1.2888,-1.2891,-1.2894,0,0,0,0,0,0,0,0,0,0,0,0,0,-1.2652,-1.2654,-1.2797,-1.2797,-1.2798,-1.2858,-1.2859,-1.286,-1.2828,-1.2826,-1.2824,-1.2822,-1.2887,-1.2891,-1.2895,0,0,0,0,0,0,0,0,0,0,0,0,0,-1.2714,-1.2655,-1.2797,-1.2789,-1.2789,-1.2858,-1.2859,-1.286,-1.2828,-1.2826,-1.2823,-1.2821,-1.2885,-1.289,-1.2895,-1.2975,0,0,-1.291,-1.2912,0,0,0,0,0,0,0,0,-1.2711,-1.272,-1.279,-1.279,-1.279,-1.2833,-1.2832,-1.2899,-1.2829,-1.2814,-1.2823,-1.282,-1.2872,-1.2878,-1.2895,-1.2978,-1.2981,-1.2911,-1.2914,-1.2916,-1.2917,0,0,0,0,0,0,0,-1.2706,-1.2717,-1.2821,-1.2791,-1.2791,-1.2783,-1.2789,-1.2845,-1.2856,-1.2815,-1.2812,-1.282,-1.2871,-1.289,-1.2896,-1.2982,-1.291,-1.2915,-1.2918,-1.292,-1.3135,-1.3138,0,0,0,0,0,0,-1.2702,-1.2713,-1.2819,-1.2823,-1.2743,-1.2788,-1.2795,-1.2822,-1.2855,-1.2858,-1.2822,-1.2818,-1.2883,-1.289,-1.2898,-1.2995,-1.2916,-1.292,-1.2923,-1.3132,-1.3136,-1.3139,0,0,0,0,0,0,-1.2699,-1.2712,-1.2817,-1.2768,-1.278,-1.2793,-1.2823,-1.2824,-1.2843,-1.2861,-1.2863,-1.2839,-1.2881,-1.2891,-1.2956,-1.2997,-1.2922,-1.2927,-1.3129,-1.3133,-1.3137,-1.3189,0,0,0,0,0,0,-1.2695,-1.2711,-1.2742,-1.2768,-1.2783,-1.2874,-1.2826,-1.2827,-1.2851,-1.2847,-1.2877,-1.288,-1.288,-1.2949,-1.2961,-1.3002,-1.2931,-1.3125,-1.3131,-1.3136,-1.3184,-1.3195,-1.3204,0,0,0,0,0,-1.269,-1.2754,-1.2743,-1.2756,-1.2821,-1.2876,-1.2885,-1.2883,-1.2855,-1.2886,-1.2897,-1.2879,-1.299,-1.2956,-1.2969,-1.3013,-1.3123,-1.3129,-1.3135,-1.318,-1.3193,-1.3203,0,0,0,0,0,0,-1.2733,-1.2758,-1.2746,-1.282,-1.2846,-1.2871,-1.291,-1.2897,-1.2932,-1.2926,-1.2923,-1.293,-1.2998,-1.3011,-1.2973,-1.3092,-1.3052,-1.3061,-1.3081,-1.3094,-1.3103,-1.31,-1.2935,0,0,0,0,0,-1.275,-1.2792,-1.2812,-1.2876,-1.2889,-1.2897,-1.2921,-1.2917,-1.2944,-1.2955,-1.2972,-1.2999,-1.304,-1.3067,-1.3106,-1.3185,-1.3192,-1.3221,-1.3231,-1.3239,-1.3248,-1.3291,-1.3305,-1.3159,-1.3159,-1.3159,0,0,-1.2788,-1.2807,-1.2834,-1.2885,-1.2905,-1.2949,-1.2907,-1.2955,-1.2988,-1.2963,-1.3026,-1.3038,-1.3068,-1.3141,-1.3174,-1.3155,-1.3289,-1.3247,-1.3253,-1.3258,-1.3299,-1.3313,-1.3325,-1.3163,-1.3162,-1.3162,0,0,-1.288,-1.2898,-1.2953,-1.2974,-1.3004,-1.3008,-1.3021,-1.3048,-1.3055,-1.3118,-1.3099,-1.3138,-1.3209,-1.3231,-1.3252,-1.3351,-1.3336,-1.3363,-1.3416,-1.3458,-1.347,-1.348,-1.3517,-1.353,-1.3371,-1.3371,-1.3371,0,-1.2924,-1.2989,-1.2984,-1.3034,-1.3057,-1.3035,-1.3091,-1.3111,-1.3153,-1.3169,-1.3146,-1.3234,-1.3253,-1.3331,-1.3355,-1.3372,-1.3388,-1.3361,-1.3468,-1.3479,-1.3488,-1.3523,-1.3536,-1.3375,-1.3374,-1.3374,-1.3374,0,-1.3042,-1.3087,-1.3128,-1.3169,-1.3196,-1.3249,-1.3252,-1.3281,-1.3274,-1.3281,-1.3345,-1.3366,-1.3409,-1.3427,-1.3421,-1.3504,-1.3491,-1.3468,-1.3429,-1.3505,-1.3538,-1.3551,-1.3379,-1.3378,-1.3377,-1.3376,0,0,-1.3164,-1.32,-1.3215,-1.3233,-1.3264,-1.3299,-1.3351,-1.3392,-1.3417,-1.3445,-1.349,-1.3549,-1.3528,-1.3551,-1.3547,-1.3584,-1.3663,-1.3557,-1.3558,-1.3578,-1.3757,-1.3775,-1.3791,-1.3652,-1.3654,-1.3656,-1.3755,0,-1.326,-1.335,-1.3346,-1.3431,-1.3474,-1.3452,-1.3497,-1.3521,-1.3529,-1.3566,-1.3574,-1.3617,-1.3585,-1.3599,-1.3635,-1.3646,-1.3699,-1.3638,-1.3694,-1.3696,-1.369,-1.3808,-1.3827,-1.392,-1.3767,-1.377,-1.3771,0,-1.3383,-1.3416,-1.3505,-1.3529,-1.3547,-1.3587,-1.3625,-1.366,-1.3687,-1.3689,-1.3715,-1.3705,-1.3758,-1.3714,-1.3788,-1.3746,-1.3768,-1.3777,-1.3781,-1.3788,-1.374,-1.382,-1.3949,-1.3963,-1.3791,-1.3789,-1.3788,0,-1.3466,-1.3532,-1.3594,-1.3609,-1.3639,-1.3668,-1.3682,-1.3705,-1.373,-1.3763,-1.3779,-1.3817,-1.3838,-1.3868,-1.3869,-1.3837,-1.3943,-1.39,-1.3948,-1.3948,-1.3973,-1.3972,-1.411,-1.3984,-1.3984,-1.3984,-1.3983,0,-1.3574,-1.363,-1.3631,-1.367,-1.3731,-1.3726,-1.3787,-1.3798,-1.3819,-1.3859,-1.3842,-1.388,-1.3878,-1.3916,-1.3917,-1.3978,-1.3987,-1.3992,-1.3992,-1.3995,-1.3994,-1.4011,-1.4005,-1.3987,-1.3986,-1.3986,-1.3985,0,-1.3678,-1.3681,-1.3747,-1.3769,-1.3776,-1.3821,-1.3839,-1.3876,-1.3881,-1.3932,-1.3944,-1.3952,-1.3997,-1.3999,-1.4051,-1.4051,-1.4126,-1.4118,-1.4117,-1.4116,-1.4165,-1.4161,-1.432,-1.4341,-1.42,-1.4201,-1.4202,0,-1.3748,-1.379,-1.3816,-1.3842,-1.3857,-1.3898,-1.3923,-1.3919,-1.3946,-1.3979,-1.4012,-1.4054,-1.4088,-1.416,-1.4172,-1.4211,-1.4205,-1.4257,-1.4211,-1.4212,-1.4208,-1.4206,-1.4211,-1.4267,-1.4269,-1.427,-1.4271,0,-1.3873,-1.3872,-1.3908,-1.3945,-1.3975,-1.4005,-1.4032,-1.4053,-1.4052,-1.4083,-1.4128,-1.4155,-1.4207,-1.425,-1.4288,-1.4302,-1.4287,-1.4285,-1.4299,-1.4304,-1.4302,-1.4305,-1.4144,-1.4283,-1.4281,-1.4281,-1.428,-1.428,-1.3963,-1.4,-1.4024,-1.4065,-1.4085,-1.411,-1.4146,-1.4155,-1.4192,-1.4234,-1.4229,-1.4279,-1.4304,-1.4353,-1.437,-1.441,-1.4392,-1.4411,-1.4416,-1.4422,-1.4428,-1.4294,-1.4416,-1.4416,-1.4416,-1.4415,-1.4415,0,-1.4088,-1.4102,-1.414,-1.4178,-1.421,-1.4192,-1.422,-1.4249,-1.4294,-1.4317,-1.4351,-1.4403,-1.4444,-1.4458,-1.4498,-1.4527,-1.4521,-1.4538,-1.4537,-1.454,-1.4441,-1.4426,-1.4542,-1.4542,-1.4542,-1.4541,-1.4541,-1.4541,-1.4157,-1.4219,-1.422,-1.4291,-1.4305,-1.4354,-1.4372,-1.4395,-1.4414,-1.4473,-1.4507,-1.4515,-1.4535,-1.4576,-1.4613,-1.4616,-1.4632,-1.4652,-1.4653,-1.456,-1.4547,-1.4535,-1.4521,-1.4655,-1.4656,-1.4749,-1.475,-1.4751]},{"header":{"parameterUnit":"m.s-1","parameterCategory":1,"la1":30.2991,"la2":30.254,"lo1":-89.0895,"lo2":-89.0444,"dy":0.0017,"dx":0.0017,"nx":28,"ny":28,"refTime":"2024-10-07T21:00:00:Z","depth":0,"parameterNumber":3,"parameterNumberName":"V-component_of_WINDS"},"data":[0,0,0,0,0,0,0,0,0,0,0,0,0,0,0,0,0,0,0,0,0,0,0,0,0,0,0,0,0,0,0,0,0,0,0,0,0,0,0,0,0,0,0,0,0,0,0,0,0,0,0,0,0,0,0,0,0,0,-6.1512,-6.1513,0,-6.1578,-6.1579,-6.158,-6.1479,-6.1475,-6.1472,-6.1468,-6.1531,-6.1536,-6.1541,0,0,0,0,0,0,0,0,0,0,0,0,0,-6.1292,-6.1297,-6.1512,-6.1513,-6.1514,-6.1578,-6.1579,-6.158,-6.1479,-6.1475,-6.1471,-6.1467,-6.1529,-6.1535,-6.1541,0,0,0,0,0,0,0,0,0,0,0,0,0,-6.1376,-6.1298,-6.1512,-6.1471,-6.1468,-6.1578,-6.1579,-6.158,-6.148,-6.1475,-6.147,-6.1465,-6.1528,-6.1535,-6.1542,-6.1693,0,0,-6.1565,-6.1568,0,0,0,0,0,0,0,0,-6.1371,-6.1384,-6.1476,-6.1474,-6.1471,-6.1515,-6.1524,-6.1618,-6.1482,-6.1476,-6.1468,-6.1462,-6.153,-6.1537,-6.156,-6.1696,-6.1698,-6.1565,-6.157,-6.1573,-6.1575,0,0,0,0,0,0,0,-6.1366,-6.1381,-6.1538,-6.1478,-6.1475,-6.1448,-6.1454,-6.1542,-6.1531,-6.1476,-6.1468,-6.1478,-6.1527,-6.1553,-6.1561,-6.1699,-6.1565,-6.1572,-6.1576,-6.1579,-6.1961,-6.1966,0,0,0,0,0,0,-6.1365,-6.1376,-6.1536,-6.154,-6.1407,-6.1456,-6.1463,-6.1506,-6.153,-6.1529,-6.1482,-6.1473,-6.1543,-6.1553,-6.1563,-6.1741,-6.1573,-6.158,-6.1584,-6.1955,-6.1962,-6.1968,0,0,0,0,0,0,-6.1361,-6.1381,-6.1533,-6.1456,-6.1474,-6.1465,-6.1515,-6.151,-6.1536,-6.1535,-6.1532,-6.1512,-6.154,-6.1552,-6.1661,-6.1742,-6.1583,-6.159,-6.1948,-6.1957,-6.1965,-6.2098,0,0,0,0,0,0,-6.1355,-6.138,-6.1439,-6.1459,-6.1478,-6.1633,-6.152,-6.1515,-6.155,-6.1539,-6.1562,-6.156,-6.1536,-6.1651,-6.1669,-6.1749,-6.1596,-6.1941,-6.1952,-6.1962,-6.2087,-6.211,-6.2131,0,0,0,0,0,-6.1348,-6.1472,-6.1442,-6.1462,-6.1552,-6.1638,-6.1649,-6.162,-6.1557,-6.1615,-6.1614,-6.156,-6.173,-6.1663,-6.1682,-6.1766,-6.1936,-6.1949,-6.1962,-6.2077,-6.2106,-6.213,0,0,0,0,0,0,-6.146,-6.1474,-6.1441,-6.1576,-6.1607,-6.1621,-6.1693,-6.1652,-6.17,-6.1687,-6.1647,-6.1653,-6.177,-6.1778,-6.1704,-6.1912,-6.1822,-6.1839,-6.1903,-6.1931,-6.1952,-6.1948,-6.1602,0,0,0,0,0,-6.1501,-6.1572,-6.1579,-6.1697,-6.1715,-6.1702,-6.1738,-6.1713,-6.1743,-6.1755,-6.1761,-6.1791,-6.185,-6.1891,-6.1946,-6.2087,-6.209,-6.2154,-6.2176,-6.2194,-6.2209,-6.2284,-6.2312,-6.201,-6.201,-6.201,0,0,-6.1585,-6.1602,-6.1648,-6.172,-6.1741,-6.1814,-6.1713,-6.1794,-6.1846,-6.1766,-6.187,-6.1876,-6.1906,-6.2032,-6.2088,-6.2042,-6.2293,-6.221,-6.2225,-6.223,-6.23,-6.2329,-6.2354,-6.2019,-6.2017,-6.2016,0,0,-6.1776,-6.1796,-6.1897,-6.192,-6.1954,-6.1944,-6.1969,-6.1989,-6.1991,-6.2095,-6.2036,-6.2097,-6.2201,-6.2224,-6.225,-6.245,-6.2401,-6.2468,-6.2583,-6.2656,-6.268,-6.2701,-6.2772,-6.2798,-6.2484,-6.2484,-6.2484,0,-6.1876,-6.1985,-6.1953,-6.2039,-6.2072,-6.2004,-6.2105,-6.2128,-6.2177,-6.2201,-6.215,-6.2279,-6.2294,-6.2424,-6.2473,-6.2496,-6.2522,-6.2466,-6.268,-6.27,-6.2719,-6.2787,-6.2813,-6.2492,-6.2491,-6.249,-6.2489,0,-6.2106,-6.2182,-6.2259,-6.2311,-6.2352,-6.2445,-6.2426,-6.2471,-6.2442,-6.2437,-6.2543,-6.2559,-6.2616,-6.2645,-6.2617,-6.2772,-6.2742,-6.2686,-6.2595,-6.2757,-6.2819,-6.2845,-6.2503,-6.2501,-6.2498,-6.2496,0,0,-6.237,-6.2404,-6.2432,-6.2455,-6.2487,-6.2544,-6.2632,-6.269,-6.2729,-6.2765,-6.2838,-6.2927,-6.2875,-6.2905,-6.2879,-6.2943,-6.31,-6.2878,-6.2879,-6.2919,-6.327,-6.3313,-6.3343,-6.3068,-6.3073,-6.3076,-6.3268,0,-6.2561,-6.2717,-6.2691,-6.2841,-6.291,-6.2846,-6.2923,-6.295,-6.2948,-6.3005,-6.3,-6.3065,-6.2992,-6.3009,-6.307,-6.3068,-6.317,-6.3054,-6.3134,-6.3137,-6.3129,-6.3376,-6.3421,-6.3601,-6.3292,-6.3296,-6.3299,0,-6.2804,-6.2852,-6.301,-6.3031,-6.3058,-6.3129,-6.3179,-6.3234,-6.3263,-6.3256,-6.3289,-6.3251,-6.3337,-6.3244,-6.3362,-6.3284,-6.3315,-6.3319,-6.3325,-6.3331,-6.3228,-6.3389,-6.3658,-6.3685,-6.3337,-6.3334,-6.3331,0,-6.2982,-6.3084,-6.3192,-6.3213,-6.324,-6.329,-6.3304,-6.3327,-6.3363,-6.3406,-6.3429,-6.3481,-6.3509,-6.3549,-6.3526,-6.346,-6.3648,-6.3553,-6.3644,-6.3645,-6.3686,-6.3684,-6.3964,-6.3706,-6.3706,-6.3705,-6.3705,0,-6.3198,-6.3297,-6.3272,-6.3338,-6.3447,-6.3415,-6.3522,-6.3527,-6.3549,-6.3613,-6.356,-6.3621,-6.3586,-6.3644,-6.3626,-6.3726,-6.3739,-6.3735,-6.3729,-6.3741,-6.3741,-6.376,-6.3747,-6.3712,-6.3711,-6.3709,-6.3708,0,-6.3414,-6.3402,-6.3515,-6.3532,-6.3538,-6.3617,-6.363,-6.3691,-6.3685,-6.3767,-6.3784,-6.3774,-6.3839,-6.382,-6.389,-6.3877,-6.4004,-6.3982,-6.3996,-6.399,-6.4083,-6.4074,-6.4385,-6.4424,-6.4141,-6.4143,-6.4146,0,-6.3553,-6.3628,-6.3654,-6.3694,-6.3712,-6.3778,-6.3815,-6.3785,-6.3825,-6.3863,-6.3919,-6.3981,-6.4028,-6.4136,-6.4133,-6.4186,-6.4165,-6.427,-6.4172,-6.4181,-6.4166,-6.4163,-6.417,-6.429,-6.4293,-6.4295,-6.4298,0,-6.3801,-6.3792,-6.3848,-6.3903,-6.3949,-6.399,-6.4026,-6.4061,-6.4034,-6.4082,-6.4149,-6.4186,-6.4259,-6.432,-6.4368,-6.4379,-6.4334,-6.4328,-6.4352,-6.4365,-6.437,-6.4368,-6.4049,-6.4321,-6.4319,-6.4317,-6.4316,-6.4315,-6.3983,-6.4047,-6.4075,-6.414,-6.4164,-6.4199,-6.4257,-6.4258,-6.4315,-6.4373,-6.4351,-6.4428,-6.4453,-6.4514,-6.4531,-6.459,-6.4549,-6.4584,-6.4593,-6.4602,-6.4614,-6.436,-6.4598,-6.4598,-6.4597,-6.4596,-6.4596,0,-6.4229,-6.4244,-6.4304,-6.4357,-6.4407,-6.4362,-6.4399,-6.4443,-6.4513,-6.4541,-6.4589,-6.4666,-6.4725,-6.4727,-6.4782,-6.4828,-6.4809,-6.4843,-6.484,-6.4843,-6.4647,-6.4621,-6.4858,-6.4858,-6.4858,-6.4858,-6.4858,-6.4858,-6.4363,-6.4468,-6.4462,-6.4578,-6.4591,-6.4668,-6.4694,-6.4725,-6.4747,-6.4836,-6.4886,-6.4887,-6.4904,-6.4959,-6.5011,-6.5009,-6.5032,-6.5075,-6.5066,-6.4883,-6.4857,-6.4832,-6.4807,-6.508,-6.508,-6.5257,-6.5259,-6.526]}]]